Regional Weather Roundup
Issued by NWS State College, PA

Home | Current Version | Previous Version | Text Only | Print | Product List | Glossary On
Versions: 1 2 3 4 5 6 7 8 9 10 11 12 13 14 15 16 17 18 19 20 21 22 23 24 25 26 27 28 29 30 31 32 33 34 35 36 37 38 39 40 41 42 43 44 45 46 47 48 49 50
000
ASUS41 KCTP 240710
RWRCTP

REGIONAL WEATHER ROUNDUP
NATIONAL WEATHER SERVICE STATE COLLEGE PA
300 AM EDT THU JUL 24 2014

Note: "fair" indicates few or no clouds below 12,000 feet with no
significant weather and/or obstructions to visibility.

* = STATION THAT DOES NOT REPORT PRECIPITATION /E.G. RAIN...SNOW...ETC/
    THUNDER OR FOG.

PAZ002>004-007>009-013>016-020>023-029>032-240800-
WESTERN PENNSYLVANIA

CITY           SKY/WX    TMP DP  RH WIND       PRES   REMARKS
ERIE           CLOUDY    67  52  58 N10       30.00F
MEADVILLE      CLOUDY    61  56  83 CALM      30.02F
FRANKLIN*      CLOUDY    57  54  88 N3        30.03S
NEW CASTLE       N/A     58  57  96 CALM      30.02F
BEAVER COUNTY  NOT AVBL
BUTLER*        PTCLDY    59  55  88 CALM      30.01F
PITTSBURGH INT PTCLDY    62  59  90 NW9       30.00S
PITTSBURGH     CLOUDY    64  58  80 N6        29.99F
INDIANA*       CLOUDY    63  61  94 CALM      30.03S
LATROBE        CLOUDY    64  63  94 CALM      30.00S
WASHINGTON CO* CLOUDY    63  57  82 N8        30.01S
$$

PAZ004>006-010>012-017>019-024>028-033>037-041-042-045-046-049>053-240800-
CENTRAL PENNSYLVANIA

CITY           SKY/WX    TMP DP  RH WIND       PRES   REMARKS
BRADFORD       CLOUDY    58  54  86 N3        30.01S
DUBOIS         CLOUDY    60  56  86 N7        29.99F
CLEARFIELD     CLOUDY    62  59  90 N6        29.98S
JOHNSTOWN      CLOUDY    62  58  86 NW8       30.00S
ALTOONA        CLOUDY    67  61  81 N5        29.97R
STATE COLLEGE  CLOUDY    67  58  73 N9G16     29.95S
WILLIAMSPORT   CLOUDY    68  57  68 W6        29.91F
SELINSGROVE    CLOUDY    69  59  70 N5        29.92S
FT INDIANTOWN  MOCLDY    72  62  70 VRB2      29.89S
CAPITAL CITY   CLOUDY    74  60  61 N9        29.88S
HARRISBURG     CLOUDY    74  63  68 NW10      29.87S
YORK           MOCLDY    71  67  87 NW5       29.87F
$$

PAZ038>040-043-044-047-048-054-055-060>062-067>071-240800-
EASTERN PENNSYLVANIA

CITY           SKY/WX    TMP DP  RH WIND       PRES   REMARKS
SCRANTON       CLOUDY    67  60  78 VRB3      29.90S
MOUNT POCONO   MOCLDY    64  59  83 NW8       29.90S
ALLENTOWN      MOCLDY    68  64  87 W3        29.86S
QUAKERTOWN*    PTSUNNY   66  66 100 CALM      29.87F
READING        CLOUDY    71  65  81 N5        29.86S
LANCASTER      MOCLDY    71  67  87 NW3       29.87S
COATESVILLE    CLOUDY    68  68 100 N3        29.88S
POTTSTOWN      CLOUDY    70  67  90 CALM      29.88S
BLUE BELL      PTCLDY    70  70 100 CALM      29.84F
DOYLESTOWN     PTCLDY    66  66 100 N5        29.84F
WILLOW GROVE   NOT AVBL
NORTH PHILA    CLOUDY    74  68  81 NW5       29.84F
PHILADELPHIA   CLOUDY    75  66  73 N10       29.83F
$$



USA.gov is the U.S. government's official web portal to all federal, state and local government web resources and services.